Aérodrome :
LOGIN :

S'inscrire | Disclaimer

   EN    FR    IT 

 










Légende :    VFR   VFR Marginal   IFR   IFR Intensif   IFR Très Intensif
Visi : 
Plafond : 
>= 8 km
>= 3000ft
5 à 8 km
1000 à 3000 ft
1500m à 5 km
500 à 1000 ft
800 à 1500m
200 à 500 ft
< 800m
< 200 ft
Symboles :   Orages  Brouillard  Fortes neiges  Fortes précipitations  Vent > 20 kt
SIGMETs :   Divers  Orages  Givrage  Turbulence  Onde Orograph.  Cendres Volcan.






- Altitude de l'aérodrome : 1367 ft
- Code IATA : FDH


EDNY - Friedrichshafen

DERNIER METAR :
  • 201050Z 24007KT 9999 FEW028 12/04 Q1016

METARs EXPIRÉS :
  • 201020Z 25007KT 9999 FEW028 12/05 Q1017
  • 200950Z 25007KT 210V270 9999 FEW028 11/05 Q1017
  • 200920Z 12003KT 9999 FEW026 10/04 Q1017
  • 200850Z 13003KT 9999 FEW026 11/04 Q1017

TAF COR TAF EDNY
Valide du 20 à 06h jusqu'au 21 à 06h UTC


200541Z 2006/2106 VRB03KT CAVOK
BECMG 2010/2012 24005KT
BECMG 2014/2016 02004KT
PROB40
TEMPO 2102/2106 4000 BR



MET'MAP, la Météo Aéronautique d'un coup d'oeil ! - Copyright ORBIFLY Décembre 2007 - Disclaimer

ORBIFLY MET'MAP TEAM :

Programmation & Développement : Alexandra Zaïnal
Sur une idée originale de : Baudouin d'Aumeries
Assistance à la programmation : Marc-Olivier Méhu
Soutien technique & logistique : Manuel Goepfert

Contact : metmap@orbifly.com




SOURCES & CREDITS :

   NOAA